This is the latest recevied weather packets stored in our database for station/object OK2ILA-1. If no packets are shown the sender has not sent any weather packets the latest 10 day(s).
| Time | Temp. | Humidity | Pressure | Rain* | Wind** | Luminosity | Snow |
|---|---|---|---|---|---|---|---|
| 1778123830 | 13.89° C | 100% | 1009.1 hPa | 0 mm | - | - | - |
| 1778123109 | 13.33° C | 100% | 1009.1 hPa | 0 mm | - | - | - |
| 1778122389 | 13.33° C | 100% | 1009 hPa | 0 mm | - | - | - |
| 1778121668 | 13.33° C | 100% | 1008.9 hPa | 0 mm | - | - | - |
| 1778120947 | 13.33° C | 100% | 1008.8 hPa | 0 mm | - | - | - |
| 1778120227 | 13.33° C | 100% | 1008.5 hPa | 0 mm | - | - | - |
| 1778119506 | 13.33° C | 100% | 1008.4 hPa | 0 mm | - | - | - |
| 1778118785 | 12.78° C | 100% | 1008.4 hPa | 0 mm | - | - | - |
| 1778118064 | 12.78° C | 100% | 1008.3 hPa | 0 mm | - | - | - |
| 1778117344 | 13.33° C | 100% | 1008.2 hPa | 0 mm | - | - | - |
| 1778116623 | 13.33° C | 100% | 1008.2 hPa | 0 mm | - | - | - |
| 1778115902 | 13.33° C | 100% | 1008 hPa | 0 mm | - | - | - |
| 1778115182 | 13.89° C | 100% | 1008.1 hPa | 0 mm | - | - | - |
| 1778114461 | 13.89° C | 100% | 1008.1 hPa | 0 mm | - | - | - |
| 1778113740 | 13.89° C | 100% | 1008 hPa | 0 mm | - | - | - |
| 1778113020 | 14.44° C | 100% | 1007.9 hPa | 0 mm | - | - | - |
| 1778112299 | 14.44° C | 100% | 1007.9 hPa | 0 mm | - | - | - |
| 1778111578 | 14.44° C | 100% | 1008.3 hPa | 0 mm | - | - | - |
| 1778110858 | 14.44° C | 100% | 1008.1 hPa | 0 mm | - | - | - |
| 1778110137 | 15° C | 100% | 1008 hPa | 0 mm | - | - | - |
| 1778109417 | 15° C | 100% | 1007.9 hPa | 0 mm | - | - | - |
| 1778108696 | 15.56° C | 100% | 1008 hPa | 0 mm | - | - | - |
| 1778107975 | 15.56° C | 100% | 1008 hPa | 0 mm | - | - | - |
| 1778107254 | 16.11° C | 100% | 1007.9 hPa | 0 mm | - | - | - |
| 1778106534 | 18.33° C | 100% | 1007.9 hPa | 0 mm | - | - | - |
* Rain latest hour (hover to see other rain measurements)
** Current wind speed in m/s (hover to see current wind gust speed)